Time,TemperatureF,DewpointF,PressureIn,WindDirection,WindDirectionDegrees,WindSpeedMPH,WindSpeedGustMPH,Humidity,HourlyPrecipIn,Conditions,Clouds,dailyrainin,SoftwareType,DateUTC
2013-02-27 00:03:00,33.2,31.6,29.83,WNW,293,0.0,0.0,94,0.00,,,0.00,WUHU216HW,2013-02-27 08:03:00,
2013-02-27 00:14:00,33.2,31.6,29.82,WNW,293,0.0,0.0,94,0.00,,,0.00,WUHU216HW,2013-02-27 08:14:00,
2013-02-27 00:19:00,33.2,31.6,29.82,NNW,338,0.0,0.0,94,0.00,,,0.00,WUHU216HW,2013-02-27 08:19:00,
2013-02-27 00:24:00,33.0,31.4,29.82,WNW,293,0.0,0.0,94,0.00,,,0.00,WUHU216HW,2013-02-27 08:24:00,
2013-02-27 00:29:00,33.0,31.4,29.82,WNW,293,0.0,0.0,94,0.00,,,0.00,WUHU216HW,2013-02-27 08:29:00,
2013-02-27 00:34:00,33.0,31.4,29.82,WNW,293,0.0,0.0,94,0.00,,,0.00,WUHU216HW,2013-02-27 08:34:00,
2013-02-27 00:39:00,33.0,31.4,29.82,WNW,293,0.0,0.0,94,0.00,,,0.00,WUHU216HW,2013-02-27 08:39:00,
2013-02-27 00:44:00,33.0,31.4,29.82,WNW,293,0.0,0.0,94,0.00,,,0.00,WUHU216HW,2013-02-27 08:44:00,
2013-02-27 00:49:00,33.0,31.4,29.83,WNW,293,0.0,0.0,94,0.00,,,0.00,WUHU216HW,2013-02-27 08:49:00,
2013-02-27 00:54:00,33.0,31.4,29.83,WNW,293,0.0,0.0,94,0.00,,,0.00,WUHU216HW,2013-02-27 08:54:00,
2013-02-27 00:59:00,33.2,31.6,29.83,SW,225,0.0,0.0,94,0.00,,,0.00,WUHU216HW,2013-02-27 08:59:00,
2013-02-27 01:04:00,33.2,31.6,29.82,SW,225,0.0,0.0,94,0.00,,,0.00,WUHU216HW,2013-02-27 09:04:00,
2013-02-27 01:09:00,33.2,31.6,29.82,SW,225,0.0,0.0,94,0.00,,,0.00,WUHU216HW,2013-02-27 09:09:00,
2013-02-27 01:14:00,33.2,31.6,29.82,NW,315,0.0,0.0,94,0.00,,,0.00,WUHU216HW,2013-02-27 09:14:00,
2013-02-27 01:19:00,33.2,31.6,29.82,NW,315,0.0,0.0,94,0.00,,,0.00,WUHU216HW,2013-02-27 09:19:00,
2013-02-27 01:24:00,33.4,32.1,29.82,South,180,0.0,0.0,95,0.00,,,0.00,WUHU216HW,2013-02-27 09:24:00,
2013-02-27 01:29:00,33.4,32.1,29.82,SSW,203,0.0,0.0,95,0.00,,,0.00,WUHU216HW,2013-02-27 09:29:00,
2013-02-27 01:34:00,33.6,32.2,29.82,SSW,203,0.0,0.0,95,0.00,,,0.00,WUHU216HW,2013-02-27 09:34:00,
2013-02-27 01:39:00,33.6,32.2,29.82,South,180,0.0,0.0,95,0.00,,,0.00,WUHU216HW,2013-02-27 09:39:00,
2013-02-27 01:44:00,33.6,32.2,29.83,South,180,0.0,0.0,95,0.00,,,0.00,WUHU216HW,2013-02-27 09:44:00,
2013-02-27 01:49:00,33.6,32.2,29.82,South,180,0.0,0.0,95,0.00,,,0.00,WUHU216HW,2013-02-27 09:49:00,
2013-02-27 01:54:00,33.6,32.2,29.83,South,180,0.0,0.0,95,0.00,,,0.00,WUHU216HW,2013-02-27 09:54:00,
2013-02-27 01:59:00,33.6,32.2,29.82,South,180,0.0,0.0,95,0.00,,,0.00,WUHU216HW,2013-02-27 09:59:00,
2013-02-27 02:04:00,33.6,32.2,29.83,South,180,0.0,0.0,95,0.02,,,0.02,WUHU216HW,2013-02-27 10:04:00,
2013-02-27 02:09:00,33.6,32.2,29.83,South,180,0.0,0.0,95,0.02,,,0.02,WUHU216HW,2013-02-27 10:09:00,
2013-02-27 02:14:00,33.6,32.2,29.83,South,180,0.0,0.0,95,0.02,,,0.02,WUHU216HW,2013-02-27 10:14:00,
2013-02-27 02:19:00,33.6,32.2,29.83,South,180,0.0,0.0,95,0.02,,,0.02,WUHU216HW,2013-02-27 10:19:00,
2013-02-27 02:24:00,33.6,32.2,29.84,South,180,0.0,0.0,95,0.02,,,0.02,WUHU216HW,2013-02-27 10:24:00,
2013-02-27 02:29:00,33.6,32.2,29.84,South,180,0.0,0.0,95,0.02,,,0.02,WUHU216HW,2013-02-27 10:29:00,
2013-02-27 02:34:00,33.6,32.2,29.84,South,180,0.0,0.0,95,0.02,,,0.02,WUHU216HW,2013-02-27 10:34:00,
2013-02-27 02:39:00,33.4,32.1,29.84,South,180,0.0,0.0,95,0.02,,,0.02,WUHU216HW,2013-02-27 10:39:00,
2013-02-27 02:44:00,33.4,32.1,29.84,South,180,0.0,0.0,95,0.02,,,0.02,WUHU216HW,2013-02-27 10:44:00,
2013-02-27 02:49:00,33.4,32.1,29.85,South,180,0.0,0.0,95,0.02,,,0.02,WUHU216HW,2013-02-27 10:49:00,
2013-02-27 02:54:00,33.4,32.1,29.84,South,180,0.0,0.0,95,0.04,,,0.04,WUHU216HW,2013-02-27 10:54:00,
2013-02-27 02:59:00,33.4,32.1,29.85,South,180,0.0,0.0,95,0.04,,,0.04,WUHU216HW,2013-02-27 10:59:00,
2013-02-27 03:04:00,33.2,31.6,29.85,South,180,0.0,0.0,94,0.02,,,0.04,WUHU216HW,2013-02-27 11:04:00,
2013-02-27 03:09:00,33.2,31.6,29.85,South,180,0.0,0.0,94,0.02,,,0.04,WUHU216HW,2013-02-27 11:09:00,
2013-02-27 03:14:00,33.4,32.1,29.85,South,180,0.0,0.0,95,0.02,,,0.04,WUHU216HW,2013-02-27 11:14:00,
2013-02-27 03:19:00,33.2,31.6,29.85,South,180,0.0,0.0,94,0.02,,,0.04,WUHU216HW,2013-02-27 11:19:00,
2013-02-27 03:29:00,33.2,31.9,29.84,South,180,0.0,0.0,95,0.02,,,0.04,WUHU216HW,2013-02-27 11:29:00,
2013-02-27 03:34:00,33.2,31.9,29.84,South,180,0.0,0.0,95,0.02,,,0.04,WUHU216HW,2013-02-27 11:34:00,
2013-02-27 03:39:00,33.2,31.9,29.84,South,180,0.0,0.0,95,0.02,,,0.04,WUHU216HW,2013-02-27 11:39:00,
2013-02-27 03:44:00,33.2,31.9,29.84,South,180,0.0,0.0,95,0.02,,,0.04,WUHU216HW,2013-02-27 11:44:00,
2013-02-27 03:49:00,33.2,31.9,29.83,South,180,0.0,0.0,95,0.02,,,0.04,WUHU216HW,2013-02-27 11:49:00,
2013-02-27 03:54:00,33.0,31.7,29.83,South,180,0.0,0.0,95,0.00,,,0.04,WUHU216HW,2013-02-27 11:54:00,
2013-02-27 03:59:00,33.2,31.9,29.83,South,180,0.0,0.0,95,0.00,,,0.04,WUHU216HW,2013-02-27 11:59:00,
2013-02-27 04:04:00,33.2,31.9,29.83,South,180,0.0,0.0,95,0.00,,,0.04,WUHU216HW,2013-02-27 12:04:00,
2013-02-27 04:16:00,33.2,31.9,29.84,South,180,0.0,0.0,95,0.00,,,0.04,WUHU216HW,2013-02-27 12:16:00,
2013-02-27 04:21:00,33.2,31.9,29.85,South,180,0.0,0.0,95,0.02,,,0.06,WUHU216HW,2013-02-27 12:21:00,
2013-02-27 04:26:00,33.2,31.9,29.85,South,180,0.0,0.0,95,0.02,,,0.06,WUHU216HW,2013-02-27 12:26:00,
2013-02-27 04:31:00,33.2,31.9,29.85,South,180,0.0,0.0,95,0.02,,,0.06,WUHU216HW,2013-02-27 12:31:00,
2013-02-27 04:36:00,33.2,31.9,29.85,South,180,0.0,0.0,95,0.02,,,0.06,WUHU216HW,2013-02-27 12:36:00,
2013-02-27 04:41:00,33.2,31.9,29.85,South,180,0.0,0.0,95,0.02,,,0.06,WUHU216HW,2013-02-27 12:41:00,
2013-02-27 04:46:00,33.2,31.9,29.84,South,180,0.0,0.0,95,0.02,,,0.06,WUHU216HW,2013-02-27 12:46:00,
2013-02-27 04:51:00,33.0,31.7,29.84,South,180,0.0,0.0,95,0.02,,,0.06,WUHU216HW,2013-02-27 12:51:00,
2013-02-27 04:56:00,33.0,31.7,29.85,South,180,0.0,0.0,95,0.02,,,0.06,WUHU216HW,2013-02-27 12:56:00,
2013-02-27 05:01:00,33.0,31.7,29.84,South,180,0.0,0.0,95,0.02,,,0.06,WUHU216HW,2013-02-27 13:01:00,
2013-02-27 05:06:00,33.0,31.7,29.84,South,180,0.0,0.0,95,0.02,,,0.06,WUHU216HW,2013-02-27 13:06:00,
2013-02-27 05:11:00,33.0,31.7,29.84,South,180,0.0,0.0,95,0.02,,,0.06,WUHU216HW,2013-02-27 13:11:00,
2013-02-27 05:16:00,33.0,31.7,29.85,South,180,0.0,0.0,95,0.02,,,0.06,WUHU216HW,2013-02-27 13:16:00,
2013-02-27 05:21:00,33.0,31.7,29.85,South,180,0.0,0.0,95,0.00,,,0.06,WUHU216HW,2013-02-27 13:21:00,
2013-02-27 05:26:00,33.2,31.7,29.85,South,180,0.0,0.0,95,0.00,,,0.06,WUHU216HW,2013-02-27 13:26:00,
2013-02-27 05:31:00,33.0,31.7,29.85,South,180,0.0,0.0,95,0.00,,,0.06,WUHU216HW,2013-02-27 13:31:00,
2013-02-27 05:36:00,33.0,31.7,29.85,South,180,0.0,0.0,95,0.00,,,0.06,WUHU216HW,2013-02-27 13:36:00,
2013-02-27 05:41:00,33.2,31.9,29.86,South,180,0.0,0.0,95,0.00,,,0.06,WUHU216HW,2013-02-27 13:41:00,
2013-02-27 05:46:00,33.2,31.9,29.86,South,180,0.0,0.0,95,0.00,,,0.06,WUHU216HW,2013-02-27 13:46:00,
2013-02-27 05:51:00,33.2,31.9,29.86,South,180,0.0,0.0,95,0.00,,,0.06,WUHU216HW,2013-02-27 13:51:00,
2013-02-27 05:57:00,33.2,31.9,29.86,South,180,0.0,0.0,95,0.00,,,0.06,WUHU216HW,2013-02-27 13:57:00,
2013-02-27 06:02:00,33.2,31.9,29.86,South,180,0.0,0.0,95,0.00,,,0.06,WUHU216HW,2013-02-27 14:02:00,
2013-02-27 06:07:00,33.2,31.9,29.86,South,180,0.0,0.0,95,0.00,,,0.06,WUHU216HW,2013-02-27 14:07:00,
2013-02-27 06:12:00,33.0,31.7,29.86,South,180,0.0,0.0,95,0.00,,,0.06,WUHU216HW,2013-02-27 14:12:00,
2013-02-27 06:17:00,33.0,31.7,29.86,South,180,0.0,0.0,95,0.00,,,0.06,WUHU216HW,2013-02-27 14:17:00,
2013-02-27 06:22:00,33.2,31.9,29.86,South,180,0.0,0.0,95,0.00,,,0.06,WUHU216HW,2013-02-27 14:22:00,
2013-02-27 06:27:00,33.0,31.7,29.86,South,180,0.0,0.0,95,0.00,,,0.06,WUHU216HW,2013-02-27 14:27:00,
2013-02-27 06:32:00,33.2,31.9,29.87,South,180,0.0,0.0,95,0.00,,,0.06,WUHU216HW,2013-02-27 14:32:00,
2013-02-27 06:37:00,33.0,31.7,29.86,South,180,0.0,0.0,95,0.00,,,0.06,WUHU216HW,2013-02-27 14:37:00,
2013-02-27 06:42:00,33.0,31.7,29.87,South,180,0.0,0.0,95,0.00,,,0.06,WUHU216HW,2013-02-27 14:42:00,
2013-02-27 06:47:00,33.0,31.7,29.86,South,180,0.0,0.0,95,0.00,,,0.06,WUHU216HW,2013-02-27 14:47:00,
2013-02-27 06:52:00,33.0,31.7,29.87,South,180,0.0,0.0,95,0.00,,,0.06,WUHU216HW,2013-02-27 14:52:00,
2013-02-27 06:57:00,33.0,31.7,29.87,South,180,0.0,0.0,95,0.00,,,0.06,WUHU216HW,2013-02-27 14:57:00,
2013-02-27 07:02:00,33.2,31.9,29.87,South,180,0.0,0.0,95,0.00,,,0.06,WUHU216HW,2013-02-27 15:02:00,
2013-02-27 07:07:00,33.2,31.9,29.87,South,180,0.0,0.0,95,0.00,,,0.06,WUHU216HW,2013-02-27 15:07:00,
2013-02-27 07:12:00,33.4,32.1,29.87,South,180,0.0,0.0,95,0.00,,,0.06,WUHU216HW,2013-02-27 15:12:00,
2013-02-27 07:17:00,33.2,31.9,29.87,South,180,0.0,0.0,95,0.00,,,0.06,WUHU216HW,2013-02-27 15:17:00,
2013-02-27 07:22:00,33.4,31.9,29.87,South,180,0.0,0.0,95,0.00,,,0.06,WUHU216HW,2013-02-27 15:22:00,
2013-02-27 07:27:00,33.4,32.1,29.87,South,180,0.0,0.0,95,0.00,,,0.06,WUHU216HW,2013-02-27 15:27:00,
2013-02-27 07:32:00,33.4,32.1,29.87,South,180,0.0,0.0,95,0.00,,,0.06,WUHU216HW,2013-02-27 15:32:00,
2013-02-27 07:37:00,33.4,32.1,29.87,South,180,0.0,0.0,95,0.00,,,0.06,WUHU216HW,2013-02-27 15:37:00,
2013-02-27 07:42:00,33.6,32.2,29.87,South,180,0.0,0.0,95,0.00,,,0.06,WUHU216HW,2013-02-27 15:42:00,
2013-02-27 07:47:00,33.6,32.2,29.87,South,180,0.0,0.0,95,0.00,,,0.06,WUHU216HW,2013-02-27 15:47:00,
2013-02-27 07:52:00,33.9,32.6,29.87,South,180,0.0,0.0,95,0.00,,,0.06,WUHU216HW,2013-02-27 15:52:00,
2013-02-27 07:57:00,33.9,32.6,29.87,South,180,0.0,0.0,95,0.00,,,0.06,WUHU216HW,2013-02-27 15:57:00,
2013-02-27 08:02:00,34.1,32.8,29.87,South,180,0.0,0.0,95,0.00,,,0.06,WUHU216HW,2013-02-27 16:02:00,
2013-02-27 08:07:00,34.3,32.9,29.87,South,180,0.0,0.0,95,0.00,,,0.06,WUHU216HW,2013-02-27 16:07:00,
2013-02-27 08:12:00,34.3,32.9,29.87,South,180,0.0,0.0,95,0.00,,,0.06,WUHU216HW,2013-02-27 16:12:00,
2013-02-27 08:17:00,34.5,33.1,29.87,South,180,0.0,0.0,95,0.00,,,0.06,WUHU216HW,2013-02-27 16:17:00,
2013-02-27 08:22:00,34.8,33.5,29.87,South,180,0.0,0.0,95,0.00,,,0.06,WUHU216HW,2013-02-27 16:22:00,
2013-02-27 08:27:00,34.8,33.5,29.86,South,180,0.0,0.0,95,0.00,,,0.06,WUHU216HW,2013-02-27 16:27:00,
2013-02-27 08:32:00,35.2,33.8,29.87,South,180,0.0,0.0,95,0.00,,,0.06,WUHU216HW,2013-02-27 16:32:00,
2013-02-27 08:37:00,35.4,34.0,29.86,South,180,0.0,0.0,95,0.00,,,0.06,WUHU216HW,2013-02-27 16:37:00,
2013-02-27 08:42:00,35.6,34.2,29.87,South,180,0.0,0.0,95,0.00,,,0.06,WUHU216HW,2013-02-27 16:42:00,
2013-02-27 08:47:00,35.7,34.7,29.87,South,180,0.0,0.0,96,0.00,,,0.06,WUHU216HW,2013-02-27 16:47:00,
2013-02-27 08:52:00,36.1,35.0,29.86,South,180,0.0,0.0,96,0.00,,,0.06,WUHU216HW,2013-02-27 16:52:00,
2013-02-27 08:57:00,36.3,35.2,29.86,South,180,0.0,0.0,96,0.00,,,0.06,WUHU216HW,2013-02-27 16:57:00,
2013-02-27 09:02:00,36.5,35.4,29.87,South,180,0.0,0.0,96,0.00,,,0.06,WUHU216HW,2013-02-27 17:02:00,
2013-02-27 09:07:00,36.6,35.6,29.87,South,180,0.0,0.0,96,0.00,,,0.06,WUHU216HW,2013-02-27 17:07:00,
2013-02-27 09:12:00,36.6,35.6,29.86,South,180,0.0,0.0,96,0.00,,,0.06,WUHU216HW,2013-02-27 17:12:00,
2013-02-27 09:17:00,37.0,35.9,29.86,South,180,0.0,0.0,96,0.00,,,0.06,WUHU216HW,2013-02-27 17:17:00,
2013-02-27 09:22:00,37.2,35.8,29.86,South,180,0.0,0.0,95,0.00,,,0.06,WUHU216HW,2013-02-27 17:22:00,
2013-02-27 09:27:00,37.2,35.8,29.85,South,180,0.0,0.0,95,0.00,,,0.06,WUHU216HW,2013-02-27 17:27:00,
2013-02-27 09:32:00,37.5,36.2,29.85,South,180,0.0,0.0,95,0.00,,,0.06,WUHU216HW,2013-02-27 17:32:00,
2013-02-27 09:37:00,37.7,36.8,29.85,South,180,0.0,0.0,96,0.00,,,0.06,WUHU216HW,2013-02-27 17:37:00,
2013-02-27 09:44:00,37.9,36.5,29.85,South,180,0.0,0.0,95,0.00,,,0.06,WUHU216HW,2013-02-27 17:44:00,
2013-02-27 09:49:00,38.1,36.7,29.85,South,180,0.0,0.0,95,0.00,,,0.06,WUHU216HW,2013-02-27 17:49:00,
2013-02-27 09:54:00,38.3,36.9,29.85,South,180,0.0,0.0,95,0.00,,,0.06,WUHU216HW,2013-02-27 17:54:00,
2013-02-27 09:59:00,38.3,36.9,29.85,South,180,0.0,0.0,95,0.00,,,0.06,WUHU216HW,2013-02-27 17:59:00,
2013-02-27 10:04:00,38.4,37.1,29.85,South,180,0.0,0.0,95,0.00,,,0.06,WUHU216HW,2013-02-27 18:04:00,
2013-02-27 10:09:00,38.8,37.4,29.85,South,180,0.0,0.0,95,0.00,,,0.06,WUHU216HW,2013-02-27 18:09:00,
2013-02-27 10:14:00,38.8,37.4,29.85,South,180,0.0,0.0,95,0.00,,,0.06,WUHU216HW,2013-02-27 18:14:00,
2013-02-27 10:19:00,39.0,37.6,29.85,South,180,0.0,0.0,95,0.00,,,0.06,WUHU216HW,2013-02-27 18:19:00,
2013-02-27 10:24:00,39.0,37.6,29.85,South,180,0.0,0.0,95,0.00,,,0.06,WUHU216HW,2013-02-27 18:24:00,
2013-02-27 10:29:00,39.3,37.6,29.85,South,180,0.0,0.0,95,0.00,,,0.06,WUHU216HW,2013-02-27 18:29:00,
2013-02-27 10:34:00,39.3,38.0,29.85,South,180,0.0,0.0,95,0.00,,,0.06,WUHU216HW,2013-02-27 18:34:00,
2013-02-27 10:39:00,39.9,38.8,29.85,South,180,0.0,0.0,96,0.00,,,0.06,WUHU216HW,2013-02-27 18:39:00,
2013-02-27 10:44:00,40.6,39.5,29.85,South,180,0.0,0.0,96,0.00,,,0.06,WUHU216HW,2013-02-27 18:44:00,
2013-02-27 10:49:00,41.0,39.6,29.84,South,180,0.0,0.0,95,0.00,,,0.06,WUHU216HW,2013-02-27 18:49:00,
2013-02-27 10:54:00,41.5,40.1,29.84,South,180,0.0,0.0,95,0.00,,,0.06,WUHU216HW,2013-02-27 18:54:00,
2013-02-27 10:59:00,41.3,40.0,29.86,South,180,0.0,0.0,95,0.00,,,0.06,WUHU216HW,2013-02-27 18:59:00,
2013-02-27 11:04:00,41.5,40.1,29.85,South,180,0.0,0.0,95,0.00,,,0.06,WUHU216HW,2013-02-27 19:04:00,
2013-02-27 11:09:00,41.5,40.1,29.85,South,180,0.0,0.0,95,0.00,,,0.06,WUHU216HW,2013-02-27 19:09:00,
2013-02-27 11:14:00,41.7,40.3,29.87,South,180,0.0,0.0,95,0.00,,,0.06,WUHU216HW,2013-02-27 19:14:00,
2013-02-27 11:19:00,41.9,40.5,29.87,South,180,0.0,0.0,95,0.00,,,0.06,WUHU216HW,2013-02-27 19:19:00,
2013-02-27 11:24:00,42.0,40.7,29.87,South,180,0.0,0.0,95,0.00,,,0.06,WUHU216HW,2013-02-27 19:24:00,
2013-02-27 11:29:00,42.0,40.7,29.87,South,180,0.0,0.0,95,0.00,,,0.06,WUHU216HW,2013-02-27 19:29:00,
2013-02-27 11:34:00,42.4,41.0,29.88,South,180,0.0,0.0,95,0.00,,,0.06,WUHU216HW,2013-02-27 19:34:00,
2013-02-27 11:39:00,42.4,41.0,29.88,South,180,0.0,0.0,95,0.00,,,0.06,WUHU216HW,2013-02-27 19:39:00,
2013-02-27 11:44:00,42.4,41.0,29.88,South,180,0.0,0.0,95,0.00,,,0.06,WUHU216HW,2013-02-27 19:44:00,
2013-02-27 11:49:00,42.4,41.0,29.88,South,180,0.0,0.0,95,0.00,,,0.06,WUHU216HW,2013-02-27 19:49:00,
2013-02-27 11:54:00,42.4,41.0,29.88,South,180,0.0,0.0,95,0.00,,,0.06,WUHU216HW,2013-02-27 19:54:00,
2013-02-27 11:59:00,42.6,41.2,29.88,South,180,0.0,0.0,95,0.00,,,0.06,WUHU216HW,2013-02-27 19:59:00,
2013-02-27 12:04:00,42.6,41.2,29.88,South,180,0.0,0.0,95,0.00,,,0.06,WUHU216HW,2013-02-27 20:04:00,
2013-02-27 12:09:00,42.4,40.8,29.88,South,180,0.0,0.0,94,0.00,,,0.06,WUHU216HW,2013-02-27 20:09:00,
2013-02-27 12:14:00,42.6,41.0,29.88,South,180,0.0,0.0,94,0.00,,,0.06,WUHU216HW,2013-02-27 20:14:00,
2013-02-27 12:19:00,42.6,41.0,29.88,WNW,293,0.0,0.0,94,0.00,,,0.06,WUHU216HW,2013-02-27 20:19:00,
2013-02-27 12:24:00,42.9,41.3,29.87,WNW,293,0.0,0.0,94,0.00,,,0.06,WUHU216HW,2013-02-27 20:24:00,
2013-02-27 12:29:00,43.1,41.5,29.88,WSW,248,0.0,0.0,94,0.00,,,0.06,WUHU216HW,2013-02-27 20:29:00,
2013-02-27 12:34:00,43.3,41.7,29.88,SSW,203,0.0,0.0,94,0.00,,,0.06,WUHU216HW,2013-02-27 20:34:00,
2013-02-27 12:39:00,43.5,41.9,29.87,SSW,203,0.0,0.0,94,0.00,,,0.06,WUHU216HW,2013-02-27 20:39:00,
2013-02-27 12:44:00,43.7,42.0,29.87,SSW,203,0.0,0.0,94,0.00,,,0.06,WUHU216HW,2013-02-27 20:44:00,
2013-02-27 12:49:00,43.7,41.8,29.86,South,180,0.0,0.0,93,0.00,,,0.06,WUHU216HW,2013-02-27 20:49:00,
2013-02-27 12:54:00,43.7,41.8,29.87,SSW,203,0.0,0.0,93,0.00,,,0.06,WUHU216HW,2013-02-27 20:54:00,
2013-02-27 12:59:00,43.8,41.7,29.87,SSW,203,0.0,0.0,92,0.00,,,0.06,WUHU216HW,2013-02-27 20:59:00,
2013-02-27 13:04:00,43.8,41.7,29.86,SW,225,0.0,0.0,92,0.00,,,0.06,WUHU216HW,2013-02-27 21:04:00,
2013-02-27 13:09:00,43.8,41.7,29.87,SSW,203,0.0,0.0,92,0.00,,,0.06,WUHU216HW,2013-02-27 21:09:00,
2013-02-27 13:14:00,43.8,41.7,29.87,SSW,203,0.0,0.0,92,0.00,,,0.06,WUHU216HW,2013-02-27 21:14:00,
2013-02-27 13:19:00,43.8,41.4,29.87,SW,225,0.0,0.0,91,0.00,,,0.06,WUHU216HW,2013-02-27 21:19:00,
2013-02-27 13:24:00,43.5,41.2,29.86,SW,225,0.0,0.0,91,0.00,,,0.06,WUHU216HW,2013-02-27 21:24:00,
2013-02-27 13:29:00,43.3,40.9,29.87,SW,225,0.0,0.0,91,0.00,,,0.06,WUHU216HW,2013-02-27 21:29:00,
2013-02-27 13:34:00,43.3,40.9,29.87,West,270,0.0,0.0,91,0.00,,,0.06,WUHU216HW,2013-02-27 21:34:00,
2013-02-27 13:39:00,43.1,40.7,29.87,WSW,248,0.0,0.0,91,0.00,,,0.06,WUHU216HW,2013-02-27 21:39:00,
2013-02-27 13:44:00,42.9,40.5,29.86,SW,225,0.0,0.0,91,0.00,,,0.06,WUHU216HW,2013-02-27 21:44:00,
2013-02-27 13:49:00,43.1,40.7,29.86,SW,225,0.0,0.0,91,0.00,,,0.06,WUHU216HW,2013-02-27 21:49:00,
2013-02-27 13:54:00,43.3,40.6,29.86,WSW,248,0.0,0.0,90,0.00,,,0.06,WUHU216HW,2013-02-27 21:54:00,
2013-02-27 13:59:00,43.5,40.8,29.86,WSW,248,0.0,0.0,90,0.00,,,0.06,WUHU216HW,2013-02-27 21:59:00,
2013-02-27 14:04:00,43.5,40.8,29.86,WSW,248,0.0,0.0,90,0.00,,,0.06,WUHU216HW,2013-02-27 22:04:00,
2013-02-27 14:09:00,43.8,41.1,29.85,SSW,203,0.0,0.0,90,0.00,,,0.06,WUHU216HW,2013-02-27 22:09:00,
2013-02-27 14:14:00,44.0,41.3,29.85,SSW,203,0.0,0.0,90,0.00,,,0.06,WUHU216HW,2013-02-27 22:14:00,
2013-02-27 14:19:00,44.0,41.3,29.86,SSW,203,0.0,0.0,90,0.00,,,0.06,WUHU216HW,2013-02-27 22:19:00,
2013-02-27 14:24:00,43.8,41.1,29.85,South,180,0.0,0.0,89,0.00,,,0.06,WUHU216HW,2013-02-27 22:24:00,
2013-02-27 14:29:00,43.8,40.8,29.85,South,180,0.0,0.0,89,0.00,,,0.06,WUHU216HW,2013-02-27 22:29:00,
2013-02-27 14:34:00,43.8,40.8,29.85,SW,225,0.0,0.0,89,0.00,,,0.06,WUHU216HW,2013-02-27 22:34:00,
2013-02-27 14:39:00,43.8,40.8,29.85,West,270,0.0,0.0,88,0.00,,,0.06,WUHU216HW,2013-02-27 22:39:00,
2013-02-27 14:44:00,43.8,40.8,29.85,SSW,203,0.0,0.0,89,0.00,,,0.06,WUHU216HW,2013-02-27 22:44:00,
2013-02-27 14:49:00,43.8,40.5,29.85,SW,225,0.0,0.0,88,0.00,,,0.06,WUHU216HW,2013-02-27 22:49:00,
2013-02-27 14:54:00,43.7,40.5,29.85,SW,225,0.0,0.0,88,0.00,,,0.06,WUHU216HW,2013-02-27 22:54:00,
2013-02-27 14:59:00,43.8,40.8,29.85,SSW,203,0.0,0.0,89,0.00,,,0.06,WUHU216HW,2013-02-27 22:59:00,
2013-02-27 15:04:00,43.8,40.8,29.84,SSW,203,0.0,0.0,89,0.00,,,0.06,WUHU216HW,2013-02-27 23:04:00,
2013-02-27 15:09:00,43.5,40.6,29.85,SW,225,0.0,0.0,89,0.00,,,0.06,WUHU216HW,2013-02-27 23:09:00,
2013-02-27 15:14:00,43.5,40.5,29.85,South,180,0.0,0.0,89,0.00,,,0.06,WUHU216HW,2013-02-27 23:14:00,
2013-02-27 15:24:00,43.3,40.3,29.85,South,180,0.0,0.0,89,0.00,,,0.06,WUHU216HW,2013-02-27 23:24:00,
2013-02-27 15:29:00,42.9,39.9,29.85,South,180,0.0,0.0,89,0.00,,,0.06,WUHU216HW,2013-02-27 23:29:00,
2013-02-27 15:34:00,42.6,39.9,29.85,South,180,0.0,0.0,90,0.00,,,0.06,WUHU216HW,2013-02-27 23:34:00,
2013-02-27 15:39:00,42.4,39.7,29.85,SSW,203,0.0,0.0,90,0.00,,,0.06,WUHU216HW,2013-02-27 23:39:00,
2013-02-27 15:44:00,42.2,39.5,29.85,SSW,203,0.0,0.0,90,0.00,,,0.06,WUHU216HW,2013-02-27 23:44:00,
2013-02-27 15:49:00,42.0,39.3,29.85,SSW,203,0.0,0.0,90,0.00,,,0.06,WUHU216HW,2013-02-27 23:49:00,
2013-02-27 15:54:00,42.0,39.3,29.85,SSW,203,0.0,0.0,90,0.00,,,0.06,WUHU216HW,2013-02-27 23:54:00,
2013-02-27 15:59:00,42.0,39.6,29.85,SSW,203,0.0,0.0,91,0.00,,,0.06,WUHU216HW,2013-02-27 23:59:00,
2013-02-27 16:04:00,41.7,39.2,29.85,SSW,203,0.0,0.0,91,0.00,,,0.06,WUHU216HW,2013-02-28 00:04:00,
2013-02-27 16:09:00,41.5,39.1,29.85,SSW,203,0.0,0.0,91,0.00,,,0.06,WUHU216HW,2013-02-28 00:09:00,
2013-02-27 16:14:00,41.5,39.1,29.85,WSW,248,0.0,0.0,91,0.00,,,0.06,WUHU216HW,2013-02-28 00:14:00,
2013-02-27 16:19:00,41.3,38.9,29.85,WSW,248,0.0,0.0,91,0.00,,,0.06,WUHU216HW,2013-02-28 00:19:00,
2013-02-27 16:24:00,41.1,38.7,29.85,WSW,248,0.0,0.0,91,0.00,,,0.06,WUHU216HW,2013-02-28 00:24:00,
2013-02-27 16:29:00,41.1,38.7,29.85,WSW,248,0.0,0.0,91,0.00,,,0.06,WUHU216HW,2013-02-28 00:29:00,
2013-02-27 16:34:00,41.0,38.5,29.85,WSW,248,0.0,0.0,91,0.00,,,0.06,WUHU216HW,2013-02-28 00:34:00,
2013-02-27 16:39:00,40.8,38.3,29.85,WSW,248,0.0,0.0,91,0.00,,,0.06,WUHU216HW,2013-02-28 00:39:00,
2013-02-27 16:44:00,40.6,38.2,29.85,WSW,248,0.0,0.0,91,0.00,,,0.06,WUHU216HW,2013-02-28 00:44:00,
2013-02-27 16:49:00,40.4,38.0,29.85,WSW,248,0.0,0.0,91,0.00,,,0.06,WUHU216HW,2013-02-28 00:49:00,
2013-02-27 16:54:00,40.2,38.1,29.85,WSW,248,0.0,0.0,92,0.00,,,0.06,WUHU216HW,2013-02-28 00:54:00,
2013-02-27 16:59:00,40.2,38.1,29.85,West,270,0.0,0.0,92,0.00,,,0.06,WUHU216HW,2013-02-28 00:59:00,
2013-02-27 17:04:00,40.2,38.1,29.85,West,270,0.0,0.0,92,0.00,,,0.06,WUHU216HW,2013-02-28 01:04:00,
2013-02-27 17:09:00,39.9,37.7,29.85,West,270,0.0,0.0,92,0.00,,,0.06,WUHU216HW,2013-02-28 01:09:00,
2013-02-27 17:14:00,39.9,37.7,29.85,WSW,248,0.0,0.0,92,0.00,,,0.06,WUHU216HW,2013-02-28 01:14:00,
2013-02-27 17:19:00,39.9,37.7,29.84,WSW,248,0.0,0.0,92,0.00,,,0.06,WUHU216HW,2013-02-28 01:19:00,
2013-02-27 17:24:00,39.7,37.5,29.84,WSW,248,0.0,0.0,92,0.00,,,0.06,WUHU216HW,2013-02-28 01:24:00,
2013-02-27 17:29:00,39.5,37.4,29.85,WSW,248,0.0,0.0,92,0.00,,,0.06,WUHU216HW,2013-02-28 01:29:00,
2013-02-27 17:34:00,39.5,37.4,29.85,WSW,248,0.0,0.0,92,0.00,,,0.06,WUHU216HW,2013-02-28 01:34:00,
2013-02-27 17:39:00,39.3,37.2,29.85,NNE,23,0.0,0.0,92,0.00,,,0.06,WUHU216HW,2013-02-28 01:39:00,
2013-02-27 17:44:00,39.3,37.2,29.85,NNW,338,0.0,0.0,92,0.00,,,0.06,WUHU216HW,2013-02-28 01:44:00,
2013-02-27 17:49:00,39.2,37.3,29.85,West,270,0.0,0.0,93,0.00,,,0.06,WUHU216HW,2013-02-28 01:49:00,
2013-02-27 17:54:00,39.0,37.1,29.85,West,270,0.0,0.0,93,0.00,,,0.06,WUHU216HW,2013-02-28 01:54:00,
2013-02-27 17:59:00,39.0,37.1,29.85,West,270,0.0,0.0,93,0.00,,,0.06,WUHU216HW,2013-02-28 01:59:00,
2013-02-27 18:04:00,38.8,36.9,29.85,West,270,0.0,0.0,93,0.00,,,0.06,WUHU216HW,2013-02-28 02:04:00,
2013-02-27 18:09:00,38.8,36.9,29.85,West,270,0.0,0.0,93,0.00,,,0.06,WUHU216HW,2013-02-28 02:09:00,
2013-02-27 18:14:00,38.4,36.5,29.84,West,270,0.0,0.0,93,0.02,,,0.08,WUHU216HW,2013-02-28 02:14:00,
2013-02-27 18:19:00,38.4,36.5,29.85,West,270,0.0,0.0,93,0.02,,,0.08,WUHU216HW,2013-02-28 02:19:00,
2013-02-27 18:24:00,38.3,36.4,29.85,West,270,0.0,0.0,93,0.02,,,0.08,WUHU216HW,2013-02-28 02:24:00,
2013-02-27 18:29:00,38.3,36.4,29.85,WSW,248,0.0,0.0,93,0.02,,,0.08,WUHU216HW,2013-02-28 02:29:00,
2013-02-27 18:34:00,38.1,36.2,29.85,WSW,248,0.0,0.0,93,0.02,,,0.08,WUHU216HW,2013-02-28 02:34:00,
2013-02-27 18:39:00,38.1,36.2,29.85,SW,225,0.0,0.0,93,0.02,,,0.08,WUHU216HW,2013-02-28 02:39:00,
2013-02-27 18:44:00,37.9,36.0,29.85,SW,225,0.0,0.0,93,0.02,,,0.08,WUHU216HW,2013-02-28 02:44:00,
2013-02-27 18:49:00,37.9,36.0,29.85,SW,225,0.0,0.0,93,0.02,,,0.08,WUHU216HW,2013-02-28 02:49:00,
2013-02-27 18:54:00,37.9,36.0,29.85,SW,225,0.0,0.0,93,0.04,,,0.10,WUHU216HW,2013-02-28 02:54:00,
2013-02-27 18:59:00,37.9,36.3,29.85,SW,225,0.0,0.0,94,0.04,,,0.10,WUHU216HW,2013-02-28 02:59:00,
2013-02-27 19:04:00,37.9,36.3,29.86,SW,225,0.0,0.0,94,0.04,,,0.10,WUHU216HW,2013-02-28 03:04:00,
2013-02-27 19:09:00,37.7,36.1,29.86,SW,225,0.0,0.0,94,0.04,,,0.10,WUHU216HW,2013-02-28 03:09:00,
2013-02-27 19:14:00,37.9,36.3,29.86,SW,225,0.0,0.0,94,0.02,,,0.10,WUHU216HW,2013-02-28 03:14:00,
2013-02-27 19:19:00,37.7,36.1,29.86,SW,225,0.0,0.0,94,0.04,,,0.12,WUHU216HW,2013-02-28 03:19:00,
2013-02-27 19:24:00,37.5,35.9,29.85,SW,225,0.0,0.0,94,0.04,,,0.12,WUHU216HW,2013-02-28 03:24:00,
2013-02-27 19:29:00,37.4,35.7,29.85,SSW,203,0.0,0.0,94,0.04,,,0.12,WUHU216HW,2013-02-28 03:29:00,
2013-02-27 19:34:00,37.2,35.6,29.85,SSW,203,0.0,0.0,94,0.04,,,0.12,WUHU216HW,2013-02-28 03:34:00,
2013-02-27 19:39:00,37.2,35.6,29.85,SSW,203,0.0,0.0,94,0.04,,,0.12,WUHU216HW,2013-02-28 03:39:00,
2013-02-27 19:44:00,37.2,35.6,29.86,SSW,203,0.0,0.0,94,0.04,,,0.12,WUHU216HW,2013-02-28 03:44:00,
2013-02-27 19:49:00,37.2,35.6,29.86,SSW,203,0.0,0.0,94,0.04,,,0.12,WUHU216HW,2013-02-28 03:49:00,
2013-02-27 19:54:00,37.2,35.6,29.85,SSW,203,0.0,0.0,94,0.02,,,0.12,WUHU216HW,2013-02-28 03:54:00,
2013-02-27 19:59:00,37.2,35.6,29.86,SSW,203,0.0,0.0,94,0.02,,,0.12,WUHU216HW,2013-02-28 03:59:00,
2013-02-27 20:04:00,37.2,35.4,29.85,SSW,203,0.0,0.0,94,0.02,,,0.12,WUHU216HW,2013-02-28 04:04:00,
2013-02-27 20:09:00,37.0,35.4,29.86,SSW,203,0.0,0.0,94,0.02,,,0.12,WUHU216HW,2013-02-28 04:09:00,
2013-02-27 20:14:00,37.0,35.4,29.86,SSW,203,0.0,0.0,94,0.02,,,0.12,WUHU216HW,2013-02-28 04:14:00,
2013-02-27 20:19:00,37.0,35.4,29.86,SSW,203,0.0,0.0,94,0.00,,,0.12,WUHU216HW,2013-02-28 04:19:00,
2013-02-27 20:24:00,37.0,35.4,29.86,SSW,203,0.0,0.0,94,0.00,,,0.12,WUHU216HW,2013-02-28 04:24:00,
2013-02-27 20:29:00,36.8,35.2,29.87,SSW,203,0.0,0.0,94,0.00,,,0.12,WUHU216HW,2013-02-28 04:29:00,
2013-02-27 20:34:00,36.6,35.0,29.87,SSW,203,0.0,0.0,94,0.00,,,0.12,WUHU216HW,2013-02-28 04:34:00,
2013-02-27 20:39:00,36.6,35.0,29.87,SSW,203,0.0,0.0,94,0.00,,,0.12,WUHU216HW,2013-02-28 04:39:00,
2013-02-27 20:44:00,36.6,35.0,29.86,SSW,203,0.0,0.0,94,0.00,,,0.12,WUHU216HW,2013-02-28 04:44:00,
2013-02-27 20:49:00,36.5,34.8,29.86,SSW,203,0.0,0.0,94,0.00,,,0.12,WUHU216HW,2013-02-28 04:49:00,
2013-02-27 20:54:00,36.5,34.8,29.86,SSW,203,0.0,0.0,94,0.00,,,0.12,WUHU216HW,2013-02-28 04:54:00,
2013-02-27 20:59:00,36.5,34.8,29.86,SSW,203,0.0,0.0,94,0.00,,,0.12,WUHU216HW,2013-02-28 04:59:00,
2013-02-27 21:04:00,36.3,34.7,29.86,SSW,203,0.0,0.0,94,0.00,,,0.12,WUHU216HW,2013-02-28 05:04:00,
2013-02-27 21:09:00,36.5,34.8,29.86,WNW,293,0.0,0.0,94,0.00,,,0.12,WUHU216HW,2013-02-28 05:09:00,
2013-02-27 21:14:00,36.3,34.7,29.86,WNW,293,0.0,0.0,94,0.00,,,0.12,WUHU216HW,2013-02-28 05:14:00,
2013-02-27 21:19:00,36.3,34.7,29.86,WNW,293,0.0,0.0,94,0.00,,,0.12,WUHU216HW,2013-02-28 05:19:00,
2013-02-27 21:24:00,36.3,34.7,29.86,WNW,293,0.0,0.0,94,0.00,,,0.12,WUHU216HW,2013-02-28 05:24:00,
2013-02-27 21:29:00,36.3,34.7,29.86,WNW,293,0.0,0.0,94,0.00,,,0.12,WUHU216HW,2013-02-28 05:29:00,
2013-02-27 21:34:00,36.3,34.7,29.86,WNW,293,0.0,0.0,94,0.00,,,0.12,WUHU216HW,2013-02-28 05:34:00,
2013-02-27 21:39:00,36.3,34.7,29.86,WNW,293,0.0,0.0,94,0.00,,,0.12,WUHU216HW,2013-02-28 05:39:00,
2013-02-27 21:44:00,36.3,34.7,29.85,WNW,293,0.0,0.0,94,0.00,,,0.12,WUHU216HW,2013-02-28 05:44:00,
2013-02-27 21:49:00,36.1,34.9,29.85,West,270,0.0,0.0,95,0.00,,,0.12,WUHU216HW,2013-02-28 05:49:00,
2013-02-27 21:54:00,36.1,34.7,29.85,West,270,0.0,0.0,95,0.00,,,0.12,WUHU216HW,2013-02-28 05:54:00,
2013-02-27 21:59:00,36.1,34.7,29.85,West,270,0.0,0.0,95,0.00,,,0.12,WUHU216HW,2013-02-28 05:59:00,
2013-02-27 22:04:00,36.1,34.7,29.85,West,270,0.0,0.0,95,0.00,,,0.12,WUHU216HW,2013-02-28 06:04:00,
2013-02-27 22:09:00,36.1,34.7,29.85,West,270,0.0,0.0,95,0.00,,,0.12,WUHU216HW,2013-02-28 06:09:00,
2013-02-27 22:14:00,36.1,34.7,29.85,WNW,293,0.0,0.0,95,0.00,,,0.12,WUHU216HW,2013-02-28 06:14:00,
2013-02-27 22:19:00,36.1,34.7,29.85,WNW,293,0.0,0.0,95,0.00,,,0.12,WUHU216HW,2013-02-28 06:19:00,
2013-02-27 22:24:00,36.1,34.7,29.85,WNW,293,0.0,0.0,95,0.00,,,0.12,WUHU216HW,2013-02-28 06:24:00,
2013-02-27 22:29:00,35.9,34.6,29.84,WNW,293,0.0,0.0,95,0.00,,,0.12,WUHU216HW,2013-02-28 06:29:00,
2013-02-27 22:34:00,35.9,34.6,29.84,WNW,293,0.0,0.0,95,0.00,,,0.12,WUHU216HW,2013-02-28 06:34:00,
2013-02-27 22:39:00,36.1,34.7,29.84,West,270,0.0,0.0,95,0.00,,,0.12,WUHU216HW,2013-02-28 06:39:00,
2013-02-27 22:44:00,35.9,34.6,29.84,West,270,0.0,0.0,95,0.00,,,0.12,WUHU216HW,2013-02-28 06:44:00,
2013-02-27 22:49:00,36.1,34.7,29.84,West,270,0.0,0.0,95,0.00,,,0.12,WUHU216HW,2013-02-28 06:49:00,
2013-02-27 22:54:00,36.1,34.7,29.85,West,270,0.0,0.0,95,0.00,,,0.12,WUHU216HW,2013-02-28 06:54:00,
2013-02-27 22:59:00,36.1,34.7,29.85,West,270,0.0,0.0,95,0.00,,,0.12,WUHU216HW,2013-02-28 06:59:00,
2013-02-27 23:04:00,36.1,34.7,29.85,West,270,0.0,0.0,95,0.00,,,0.12,WUHU216HW,2013-02-28 07:04:00,
2013-02-27 23:09:00,36.1,34.7,29.85,West,270,0.0,0.0,95,0.00,,,0.12,WUHU216HW,2013-02-28 07:09:00,
2013-02-27 23:14:00,36.1,34.7,29.85,West,270,0.0,0.0,95,0.00,,,0.12,WUHU216HW,2013-02-28 07:14:00,
2013-02-27 23:19:00,36.1,34.7,29.85,West,270,0.0,0.0,95,0.00,,,0.12,WUHU216HW,2013-02-28 07:19:00,
2013-02-27 23:24:00,36.1,34.7,29.84,West,270,0.0,0.0,95,0.00,,,0.12,WUHU216HW,2013-02-28 07:24:00,
2013-02-27 23:29:00,36.1,34.7,29.84,West,270,0.0,0.0,95,0.02,,,0.14,WUHU216HW,2013-02-28 07:29:00,
2013-02-27 23:34:00,36.1,34.7,29.84,West,270,0.0,0.0,95,0.02,,,0.14,WUHU216HW,2013-02-28 07:34:00,
2013-02-27 23:39:00,36.1,34.7,29.84,West,270,0.0,0.0,95,0.02,,,0.14,WUHU216HW,2013-02-28 07:39:00,
2013-02-27 23:44:00,36.1,34.7,29.84,West,270,0.0,0.0,95,0.02,,,0.14,WUHU216HW,2013-02-28 07:44:00,
2013-02-27 23:49:00,36.1,34.7,29.85,WNW,293,0.0,0.0,95,0.02,,,0.14,WUHU216HW,2013-02-28 07:49:00,
2013-02-27 23:54:00,36.1,34.7,29.85,WNW,293,0.0,0.0,95,0.02,,,0.14,WUHU216HW,2013-02-28 07:54:00,
2013-02-27 23:59:00,36.1,34.7,29.85,WNW,293,0.0,0.0,95,0.02,,,0.14,WUHU216HW,2013-02-28 07:59:00,